星链-31118 (STARLINK-31118 )

导读

STARLINK-31118是美国SpaceX公司星链星座中的一颗卫星,于2023年12月23日发射入轨。星链项目旨在构建全球低轨卫星互联网星座,为地面基础设施覆盖不足的偏远地区提供高速低延迟宽带服务。作为大规模组网卫星之一,该卫星运行于近地轨道,服务于全球网络接入需求,也推动了卫星互联网产业发展,同时也引发了关于太空资源利用与天文观测影响的讨论。

基本信息
目录编号:
58620
目录名称:
STARLINK-31118
国际标识:
2023-203C
轨道中心:
EARTH
卫星名称:
星链-31118
卫星全名:
星链-31118 (STARLINK-31118 )
卫星状态:
已陨落 最后检测时间 2024-11-28
发射日期:
2023-12-23 UTC
国别 :
美国 (US)
星等 :
--
轨道信息
数据来源 国际轨道数据
星历时间: 2024-11-28T13:50:01+0800
轨道信息已过期607天
半长轴: 6594.03km
偏心率: 0.0007738
轨道倾角: 42.976°
近地点辐角 305.827°
升交点赤经 139.178°
平近点角 180.443°
近地点: 210.792km
远地点: 220.998km
周期: 88.815分钟
每日圈数: 16.213488
详细信息
固有亮度:
5
最大亮度:
0.3
卫星平台:
Starlink v2.0 mini
覆盖范围:
全球
运营商:
太空探索技术公司
运营商所在国:
美国
制造商(研发单位):
太空探索技术公司
制造商所在国:
美国
使用方式:
暂无
卫星简介
星链(Starlink)计划是由太空探索技术公司(SpaceX)提出的一个巨型低轨卫星互联网星座项目,计划在2019年至2024年间在太空搭建由约1.2万颗卫星组成的“星链”网络,其中1584颗将部署在地球上空550千米处的近地轨道,并从2020年开始工作。该卫星仍在工作。